Temp
69 72 71 71 64 58 55 62 68 73 73 75 80 78 75 73 73 66 79 82 80 77 77 79 79 80 80 79 79 79 78 78 79 79 79 79 79 79 79 79 79 80 80 81 81 81 80 80 80
70 77 72 66 57 51 56 64 68 72 75 78 80 78 75 73 81 78 78 82 81 78 77 77 79 79 79 79 79 78 78 78 78 79 79 79 79 79 79 79 79 80 81 81 81 80 80 80 80
73 75 68 61 51 52 55 66 70 73 84 76 76 80 79 76 82 80 80 81 79 76 77 77 79 79 79 79 79 78 78 78 78 79 79 79 79 78 78 79 79 80 81 81 81 80 80 80 80
73 70 66 60 53 60 63 70 73 71 76 77 75 75 81 85 85 84 82 81 79 77 77 78 79 79 79 79 79 78 78 78 78 79 79 79 79 78 78 78 79 80 80 80 80 80 79 79 79
69 64 58 53 54 63 69 72 73 70 72 73 76 72 75 84 85 83 81 82 78 76 76 78 79 79 79 79 79 78 78 78 78 78 79 79 78 78 78 78 79 79 80 80 80 79 78 78 78
66 62 56 52 55 66 69 70 72 72 73 75 76 73 73 82 82 82 83 80 81 77 77 77 79 79 78 79 79 78 78 78 78 78 78 78 78 78 78 78 79 79 79 79 79 78 77 77 77
62 58 53 52 57 62 68 70 68 68 68 73 74 70 73 78 80 83 82 81 81 80 77 76 77 78 79 78 78 77 77 77 77 77 77 77 77 77 77 78 78 78 78 78 78 77 77 77 77
63 60 53 56 56 57 67 70 66 71 71 79 79 70 67 77 79 78 80 79 77 77 77 75 76 77 77 76 78 77 77 77 77 77 77 77 77 77 77 76 77 78 78 77 77 77 77 77 76
64 56 55 59 60 59 66 66 73 74 72 76 76 74 78 80 79 75 73 74 75 77 74 74 74 77 77 77 77 77 78 77 77 77 77 75 73 74 75 76 77 77 77 77 77 77 76 76 77
59 51 57 65 65 58 63 63 66 71 71 70 72 76 81 80 77 75 72 71 72 73 74 73 74 75 76 78 76 75 75 75 74 75 74 74 75 73 75 75 77 77 77 77 77 77 76 76 70
55 55 61 67 66 65 64 64 68 66 64 69 69 74 74 74 73 74 72 72 71 72 75 74 74 74 75 76 74 75 75 76 75 76 75 75 75 73 73 73 73 73 76 73 74 73 71 70 69
53 65 65 68 66 64 62 66 66 65 70 76 74 73 72 71 71 71 70 70 72 73 73 74 75 74 73 73 74 75 73 75 76 76 75 75 73 72 74 73 72 71 73 73 71 70 70 69 68
54 61 66 69 67 62 67 65 64 67 74 74 75 76 73 71 70 71 73 72 70 71 73 72 73 73 73 72 73 73 75 74 75 75 75 75 73 69 71 69 69 71 71 74 74 70 69 68 68
60 60 63 64 63 61 64 63 64 72 72 74 72 72 73 71 73 71 71 74 71 70 72 73 73 73 72 71 71 72 72 72 72 72 72 75 72 70 69 68 69 70 71 72 72 70 69 68 68
62 57 60 60 58 60 63 58 63 72 69 70 72 70 73 73 73 75 75 74 73 73 72 71 72 73 72 72 71 70 71 72 72 71 71 73 72 72 70 70 70 71 71 71 70 70 69 68 68
55 53 48 58 64 63 61 52 65 68 65 66 68 69 69 69 72 72 72 71 71 71 71 71 77 73 72 72 73 72 70 70 70 71 71 73 73 72 70 71 69 70 71 71 70 70 68 68 69
49 43 44 55 60 61 57 54 64 66 65 64 65 65 67 67 69 69 70 70 67 66 67 67 68 67 67 68 69 69 70 70 70 71 71 71 72 73 71 70 71 70 69 70 72 71 70 68 69
43 44 46 48 57 57 51 54 61 64 63 62 63 64 64 66 68 68 69 69 66 66 66 66 65 65 65 64 64 64 64 64 65 66 69 71 70 71 70 71 70 70 69 72 73 72 71 71 70
52 48 46 51 57 53 50 49 55 58 58 58 59 61 61 63 63 64 64 65 64 64 64 64 64 63 63 63 63 62 62 61 62 63 68 69 70 71 69 70 70 70 70 69 71 70 68 67 67
52 47 45 52 57 52 51 50 55 59 59 57 58 58 59 60 62 64 63 63 63 63 64 64 64 64 63 62 61 62 61 61 62 63 65 66 66 67 68 69 69 70 69 69 68 67 66 66 66
48 46 46 48 52 51 50 46 50 59 59 61 60 59 59 59 60 62 63 62 62 62 62 63 62 63 62 63 62 62 62 62 62 62 61 64 66 66 68 69 69 69 69 68 68 68 66 65 64
44 55 53 51 46 38 50 34 46 51 53 56 56 56 57 59 60 60 60 60 61 61 62 62 63 63 64 63 62 61 59 58 58 58 60 61 64 66 68 69 69 69 68 68 69 68 67 66 65
51 56 51 49 43 39 42 36 42 48 48 51 55 57 57 57 59 59 59 60 61 62 61 61 61 61 60 61 59 58 57 57 58 58 59 59 61 64 65 66 66 67 67 68 67 66 66 64 66
57 51 45 40 37 31 40 39 38 44 50 50 53 55 58 58 58 59 59 61 59 60 59 59 59 57 57 57 57 56 55 56 56 57 56 57 58 60 63 65 64 63 62 65 65 64 65 64 64
52 40 30 30 30 30 42 38 41 50 53 55 55 56 56 55 56 57 57 58 57 58 58 60 59 56 56 56 55 54 53 53 53 54 55 55 55 57 60 61 62 63 65 66 66 64 65 66 66
43 41 30 26 26 31 42 35 43 54 55 55 56 55 56 56 55 57 56 55 55 56 56 55 54 54 54 54 53 53 52 51 52 53 53 53 54 57 60 61 60 61 61 62 64 66 67 65 66
44 39 43 37 33 28 34 41 50 51 53 53 53 53 53 55 55 53 53 55 55 55 55 54 53 52 52 52 51 51 52 52 52 53 52 55 54 58 61 62 61 61 61 61 62 63 64 65 66
48 51 35 31 26 25 31 35 38 46 48 50 49 50 54 53 52 52 53 53 54 53 53 52 51 51 51 52 50 52 51 52 52 52 52 52 54 56 59 60 61 61 63 64 63 63 64 64 64
43 39 38 36 32 25 25 32 45 48 48 48 50 52 52 50 48 49 50 52 53 51 50 50 50 50 49 49 48 48 49 50 51 52 53 53 52 54 57 59 60 61 61 62 62 62 62 62 63
47 42 38 25 29 27 25 33 51 48 48 49 48 51 47 46 47 48 50 50 50 50 50 49 49 48 49 49 49 49 49 49 49 50 52 54 53 54 56 58 60 61 61 60 61 62 62 60 58
MSLP
1008.77 1008.60 1008.99 1009.27 1010.01 1009.95 1008.94 1007.58 1006.41 1005.40 1004.54 1003.74 1003.57 1004.25 1004.65 1004.96 1005.11 1005.78 1005.54 1005.71 1006.18 1006.79 1007.38 1007.99 1008.35 1008.37 1008.37 1008.59 1008.69 1008.85 1009.16 1009.41 1009.65 1009.81 1010.06 1010.32 1010.55 1010.77 1011.01 1011.17 1011.36 1011.59 1011.82 1011.95 1012.05 1012.17 1012.25 1012.43 1012.64
1008.52 1008.56 1008.97 1009.25 1010.14 1010.10 1008.73 1007.26 1006.20 1005.46 1004.69 1003.78 1004.10 1004.56 1004.76 1005.00 1004.71 1005.19 1005.50 1005.87 1006.18 1006.91 1007.43 1007.81 1008.22 1008.41 1008.50 1008.71 1008.90 1009.02 1009.22 1009.47 1009.70 1009.94 1010.12 1010.38 1010.64 1010.84 1011.06 1011.23 1011.44 1011.75 1011.93 1012.05 1012.17 1012.32 1012.44 1012.58 1012.71
1008.27 1008.40 1009.09 1009.79 1010.35 1009.98 1008.81 1006.66 1005.72 1005.24 1004.68 1004.67 1004.15 1004.20 1004.42 1004.62 1004.77 1005.02 1005.08 1005.75 1006.35 1007.02 1007.43 1007.75 1008.18 1008.49 1008.65 1008.78 1008.98 1009.15 1009.38 1009.61 1009.84 1010.03 1010.24 1010.45 1010.69 1010.91 1011.07 1011.30 1011.58 1011.88 1012.11 1012.19 1012.26 1012.38 1012.53 1012.73 1012.90
1008.23 1008.70 1009.88 1009.69 1010.09 1009.08 1008.04 1006.71 1005.69 1004.95 1004.47 1004.75 1004.43 1004.65 1004.61 1004.40 1004.50 1004.89 1005.63 1006.16 1006.49 1007.16 1007.41 1007.71 1008.05 1008.36 1008.68 1008.94 1009.18 1009.35 1009.52 1009.74 1009.95 1010.22 1010.43 1010.57 1010.79 1010.99 1011.16 1011.36 1011.59 1011.88 1012.18 1012.40 1012.46 1012.55 1012.63 1012.76 1012.93
1008.74 1009.45 1010.09 1010.28 1009.81 1008.72 1007.51 1006.78 1005.78 1005.13 1005.17 1005.15 1004.70 1005.12 1004.97 1005.05 1004.94 1005.17 1005.69 1006.22 1006.48 1007.16 1007.44 1007.74 1008.05 1008.24 1008.58 1008.89 1009.21 1009.42 1009.66 1009.84 1010.03 1010.22 1010.48 1010.68 1010.96 1011.18 1011.42 1011.55 1011.74 1011.93 1012.04 1012.23 1012.47 1012.65 1012.74 1012.84 1013.00
1009.58 1010.13 1010.43 1010.29 1009.53 1008.56 1007.51 1006.98 1006.31 1005.49 1005.44 1005.40 1005.30 1005.43 1005.67 1005.48 1005.54 1005.89 1006.16 1006.37 1006.62 1006.91 1007.29 1007.52 1007.79 1007.95 1008.35 1008.84 1009.16 1009.38 1009.68 1009.90 1010.17 1010.45 1010.66 1010.83 1011.06 1011.33 1011.47 1011.64 1011.81 1011.99 1012.12 1012.29 1012.49 1012.66 1012.85 1012.98 1013.10
1010.00 1010.71 1010.60 1009.86 1009.33 1008.38 1007.77 1007.12 1006.97 1006.67 1005.99 1005.61 1005.44 1005.80 1005.95 1005.91 1005.49 1005.62 1006.03 1006.66 1007.13 1007.61 1008.13 1008.23 1008.36 1008.29 1008.23 1008.57 1009.01 1009.33 1009.59 1010.02 1010.29 1010.60 1010.85 1011.05 1011.18 1011.34 1011.60 1011.82 1011.96 1012.09 1012.20 1012.32 1012.50 1012.67 1012.83 1012.92 1013.00
1010.10 1010.75 1010.61 1009.52 1009.18 1008.35 1007.63 1007.19 1006.83 1006.75 1006.35 1005.77 1005.66 1006.12 1006.26 1006.41 1006.04 1006.40 1006.50 1006.84 1007.31 1007.76 1008.04 1008.33 1008.51 1008.79 1008.98 1009.01 1009.17 1009.48 1009.89 1010.15 1010.49 1010.71 1010.94 1011.18 1011.37 1011.58 1011.78 1011.97 1012.15 1012.32 1012.44 1012.53 1012.60 1012.69 1012.76 1012.87 1012.86
1010.00 1010.92 1010.66 1009.33 1008.93 1008.21 1007.53 1007.42 1006.83 1006.65 1006.63 1006.53 1006.46 1006.57 1006.62 1006.26 1006.39 1006.84 1007.44 1007.70 1007.89 1007.94 1008.11 1008.35 1008.51 1008.62 1008.92 1009.37 1009.52 1009.57 1009.80 1010.22 1010.54 1010.83 1011.00 1011.28 1011.46 1011.65 1011.83 1012.00 1012.19 1012.37 1012.52 1012.66 1012.73 1012.78 1012.79 1012.84 1012.89
1010.32 1011.05 1010.08 1008.92 1008.40 1008.05 1007.63 1007.36 1007.19 1007.03 1006.94 1006.79 1006.93 1006.90 1006.62 1006.48 1006.77 1007.30 1007.48 1007.68 1007.83 1007.83 1008.07 1008.31 1008.60 1008.71 1008.79 1008.97 1009.45 1009.81 1009.84 1010.13 1010.41 1010.59 1010.90 1011.30 1011.47 1011.61 1011.79 1011.99 1012.17 1012.33 1012.43 1012.55 1012.68 1012.75 1012.79 1012.85 1012.98
1010.36 1010.26 1009.52 1008.49 1007.99 1007.95 1007.69 1007.41 1007.16 1007.22 1007.20 1007.00 1007.01 1006.93 1006.94 1006.84 1006.87 1006.93 1007.41 1007.37 1007.27 1007.20 1007.56 1007.81 1008.25 1008.72 1009.14 1009.23 1009.45 1009.98 1010.08 1010.34 1010.66 1010.80 1011.01 1011.16 1011.47 1011.71 1011.82 1011.90 1012.01 1012.12 1012.17 1012.37 1012.49 1012.53 1012.60 1012.74 1012.74
1010.27 1009.54 1009.10 1008.33 1008.01 1007.88 1007.72 1007.46 1007.37 1007.38 1007.27 1006.88 1007.03 1007.11 1006.87 1006.94 1006.89 1006.84 1006.79 1007.23 1007.03 1007.02 1007.10 1007.37 1007.71 1008.24 1008.89 1009.16 1009.62 1009.85 1010.37 1010.52 1010.58 1010.78 1011.12 1011.32 1011.46 1011.59 1011.50 1011.70 1011.88 1011.99 1011.99 1012.07 1012.19 1012.24 1012.32 1012.45 1012.53
1009.99 1009.48 1008.94 1008.35 1008.14 1008.13 1007.81 1007.67 1007.65 1007.44 1006.99 1006.99 1007.00 1006.89 1006.96 1007.01 1007.06 1006.75 1006.56 1006.73 1006.75 1006.92 1007.00 1007.30 1007.69 1007.99 1008.39 1008.84 1009.30 1009.67 1010.03 1010.24 1010.36 1010.62 1010.81 1011.17 1011.51 1011.68 1011.73 1011.79 1011.74 1011.66 1011.71 1011.86 1011.92 1011.88 1012.02 1012.18 1012.23
1009.81 1009.57 1009.23 1008.81 1008.38 1008.19 1008.02 1007.86 1007.75 1007.26 1007.03 1007.16 1007.21 1007.07 1006.80 1006.83 1006.75 1006.70 1006.63 1006.47 1006.70 1006.62 1006.88 1007.15 1007.52 1007.88 1008.29 1008.63 1009.05 1009.44 1009.62 1009.93 1010.25 1010.41 1010.60 1010.75 1010.96 1011.40 1011.51 1011.63 1011.75 1011.62 1011.39 1011.27 1011.33 1011.57 1011.80 1011.91 1012.01
1009.84 1009.88 1009.47 1009.10 1008.76 1008.36 1008.24 1008.31 1008.04 1007.23 1007.74 1007.59 1007.27 1007.06 1006.72 1006.59 1006.50 1006.43 1006.22 1006.32 1006.27 1006.48 1006.58 1006.93 1007.14 1007.72 1008.25 1008.55 1008.89 1009.13 1009.28 1009.46 1009.97 1010.07 1010.10 1010.32 1010.52 1010.74 1011.05 1011.13 1011.27 1011.28 1011.31 1011.53 1011.50 1011.38 1011.42 1011.65 1011.80
1010.52 1010.55 1010.38 1009.60 1009.12 1008.89 1008.74 1008.85 1008.11 1008.04 1008.21 1008.10 1007.84 1007.67 1007.55 1007.27 1006.89 1006.49 1006.34 1006.34 1006.11 1006.33 1006.43 1006.68 1006.94 1007.43 1007.82 1008.11 1008.44 1008.81 1009.12 1009.43 1009.72 1009.80 1009.79 1009.80 1010.01 1010.15 1010.50 1010.96 1010.83 1010.87 1011.02 1011.31 1011.45 1011.35 1011.07 1011.11 1011.39
1011.67 1011.49 1011.07 1010.42 1010.11 1009.65 1009.41 1009.56 1008.93 1008.48 1008.64 1008.73 1008.27 1007.89 1007.76 1007.25 1006.69 1006.37 1006.52 1006.42 1006.58 1006.97 1007.07 1007.33 1007.46 1007.89 1008.35 1008.58 1008.80 1009.06 1009.50 1009.83 1009.94 1009.86 1010.07 1010.01 1009.96 1009.82 1009.98 1010.13 1010.17 1010.22 1010.57 1010.81 1010.77 1010.73 1010.95 1010.87 1010.63
1012.07 1011.85 1011.46 1011.22 1010.89 1010.50 1010.59 1010.63 1010.24 1009.40 1009.40 1009.24 1008.78 1008.22 1007.87 1007.76 1007.02 1006.69 1006.26 1006.22 1006.48 1006.86 1007.21 1007.54 1007.96 1008.33 1008.73 1009.01 1009.29 1009.51 1009.74 1010.00 1010.06 1010.10 1010.02 1009.86 1009.83 1009.80 1009.68 1009.77 1009.81 1009.65 1009.59 1010.00 1010.07 1010.05 1010.00 1010.23 1010.22
1011.52 1011.73 1011.84 1011.50 1011.22 1011.17 1011.18 1011.34 1010.59 1009.98 1009.92 1009.51 1008.88 1008.39 1008.26 1008.10 1007.87 1007.46 1006.66 1006.53 1006.82 1007.31 1007.54 1007.76 1008.05 1008.55 1008.91 1009.53 1009.99 1010.17 1010.18 1010.05 1009.97 1009.97 1009.75 1009.70 1009.58 1009.52 1009.50 1009.51 1009.38 1009.35 1009.24 1008.97 1009.24 1009.25 1009.61 1009.70 1009.85
1011.57 1011.98 1012.27 1012.12 1011.71 1011.69 1011.62 1011.63 1010.84 1010.36 1010.19 1009.60 1009.01 1008.77 1008.44 1008.66 1008.47 1008.40 1008.10 1008.03 1007.99 1008.06 1008.07 1008.48 1008.72 1008.94 1009.09 1009.28 1009.65 1009.79 1010.08 1010.14 1010.00 1009.69 1009.41 1009.19 1008.98 1008.91 1009.10 1009.07 1009.00 1008.79 1008.59 1008.54 1008.80 1008.77 1009.24 1009.25 1009.50
1011.80 1012.19 1012.54 1012.83 1012.58 1012.32 1012.30 1012.24 1011.61 1010.88 1010.53 1010.04 1009.92 1009.74 1009.23 1009.47 1009.55 1009.39 1009.18 1009.09 1008.89 1009.14 1009.24 1008.95 1009.27 1009.45 1009.50 1009.50 1009.67 1009.76 1009.78 1009.98 1010.21 1010.31 1010.07 1009.82 1009.42 1009.07 1008.76 1008.51 1008.28 1008.19 1008.16 1008.08 1008.09 1008.15 1008.46 1008.85 1009.07
1011.96 1012.18 1012.61 1013.03 1013.46 1013.92 1013.45 1013.97 1012.39 1011.79 1011.49 1011.14 1010.84 1010.54 1010.48 1010.44 1010.34 1010.37 1010.33 1010.13 1010.14 1010.24 1009.99 1009.93 1009.64 1009.84 1010.03 1010.07 1010.11 1010.33 1010.66 1010.94 1010.78 1010.69 1010.20 1009.85 1009.33 1009.07 1008.51 1008.12 1007.84 1007.66 1007.41 1007.31 1007.49 1007.66 1007.83 1008.39 1008.71
1011.97 1012.21 1013.06 1013.59 1014.30 1014.79 1014.76 1014.93 1012.81 1012.13 1011.85 1011.61 1011.62 1011.54 1011.31 1011.16 1010.95 1010.97 1011.00 1010.87 1010.74 1010.58 1010.72 1010.57 1010.52 1010.65 1010.76 1010.82 1010.96 1011.29 1011.26 1011.12 1010.88 1010.66 1010.39 1009.90 1009.27 1008.78 1008.21 1007.70 1007.44 1007.20 1006.95 1006.88 1006.98 1007.13 1007.22 1007.34 1007.18
1012.29 1013.07 1014.18 1015.26 1015.98 1016.18 1015.30 1015.22 1013.62 1012.38 1011.69 1011.59 1011.74 1011.73 1011.53 1011.48 1011.36 1011.42 1011.33 1011.26 1011.25 1010.98 1010.97 1011.01 1010.76 1010.91 1010.89 1010.83 1011.00 1011.28 1011.33 1011.31 1011.23 1010.93 1010.68 1010.11 1009.37 1008.61 1007.97 1007.39 1007.02 1006.78 1006.59 1006.33 1006.30 1006.45 1006.70 1006.84 1006.90
1013.16 1014.88 1016.20 1017.06 1017.52 1016.99 1015.76 1015.44 1013.08 1011.75 1011.28 1011.14 1011.46 1011.53 1011.47 1011.51 1011.42 1011.48 1011.49 1011.39 1011.39 1011.32 1011.22 1011.10 1011.34 1011.38 1011.07 1010.89 1011.27 1011.21 1011.38 1011.43 1011.43 1011.23 1010.86 1010.46 1009.73 1008.83 1007.80 1007.19 1006.69 1006.51 1006.26 1006.04 1005.87 1005.86 1005.89 1005.89 1006.14
1013.97 1015.34 1017.12 1018.05 1018.53 1017.81 1016.28 1014.54 1012.24 1011.33 1011.06 1011.01 1011.05 1011.13 1011.20 1011.29 1011.26 1011.33 1011.57 1011.79 1011.63 1011.55 1011.62 1011.73 1011.53 1011.49 1011.49 1011.55 1011.69 1011.47 1011.42 1011.28 1011.19 1010.96 1010.59 1010.19 1009.69 1008.60 1007.61 1007.10 1006.46 1006.00 1005.79 1005.70 1005.42 1005.23 1004.93 1004.84 1004.98
1014.52 1015.61 1016.54 1017.84 1018.70 1018.59 1016.58 1014.32 1012.22 1011.53 1011.22 1011.21 1011.25 1011.37 1011.36 1011.25 1011.37 1011.55 1011.63 1011.79 1011.83 1011.75 1011.61 1011.67 1011.56 1011.61 1011.65 1011.57 1011.46 1011.41 1011.16 1011.02 1010.74 1010.27 1010.00 1009.48 1008.87 1008.23 1007.25 1006.43 1006.02 1005.57 1005.17 1004.99 1004.80 1004.66 1004.42 1004.21 1003.94
1014.45 1015.49 1017.00 1018.67 1019.61 1019.02 1016.81 1014.92 1012.79 1012.01 1011.67 1011.59 1011.61 1011.73 1011.71 1011.68 1011.78 1011.82 1012.04 1012.12 1012.09 1011.81 1011.76 1011.78 1011.66 1011.51 1011.40 1011.28 1011.09 1011.02 1011.11 1010.77 1010.43 1010.00 1009.43 1009.03 1008.26 1007.63 1006.90 1006.13 1005.47 1005.04 1004.69 1004.45 1004.34 1004.15 1003.72 1003.70 1003.37
1015.39 1016.17 1017.56 1018.92 1019.48 1019.04 1017.57 1014.40 1011.99 1011.61 1011.62 1011.84 1011.90 1011.94 1011.60 1011.85 1012.06 1012.20 1012.27 1011.97 1011.94 1011.77 1011.75 1011.73 1011.67 1011.59 1011.47 1011.41 1011.38 1011.26 1010.97 1010.65 1010.23 1009.74 1009.09 1008.58 1007.86 1007.18 1006.51 1005.79 1005.25 1004.72 1004.08 1003.73 1003.69 1003.46 1003.22 1003.48 1003.28
1015.78 1016.60 1017.86 1019.56 1019.64 1019.21 1018.12 1012.94 1011.56 1011.41 1011.83 1011.97 1011.90 1011.84 1011.80 1012.13 1012.27 1012.21 1012.24 1012.08 1011.97 1011.88 1011.78 1011.72 1011.54 1011.53 1011.38 1011.07 1010.95 1010.81 1010.54 1010.23 1009.94 1009.34 1008.68 1008.07 1007.39 1006.68 1006.09 1005.36 1004.70 1004.17 1003.68 1003.32 1003.19 1003.00 1003.07 1003.40 1003.76
Wind_Speed
6 5 3 3 5 6 4 3 2 10 7 3 7 4 6 1 2 4 2 11 12 13 11 11 12 14 15 15 16 16 16 16 16 16 16 15 15 16 16 15 15 14 14 13 12 12 11 11 10
3 2 3 3 6 3 6 5 6 6 4 9 10 5 3 2 2 3 3 9 14 11 10 10 14 14 16 16 15 15 16 17 16 16 16 16 15 15 15 14 13 13 14 13 12 11 10 11 11
2 1 4 5 3 2 4 6 7 2 8 5 4 3 3 2 2 6 4 13 13 10 9 11 15 13 15 16 15 15 15 16 15 16 16 15 14 14 13 13 12 12 12 12 11 10 10 10 10
3 4 5 5 2 5 4 8 9 1 0 4 1 6 3 2 5 6 12 13 13 10 9 13 16 15 14 15 15 14 15 15 15 14 14 14 13 12 12 11 11 11 11 10 9 9 9 9 10
4 3 4 4 3 5 5 7 9 6 5 5 3 2 3 5 7 12 13 13 14 10 8 11 16 15 15 16 16 15 14 14 14 14 14 14 12 11 10 10 10 10 11 11 9 9 8 7 8
4 3 4 1 3 6 6 7 6 6 5 4 6 3 2 3 5 6 8 10 10 13 11 12 17 18 17 15 15 15 14 15 14 13 13 13 12 11 10 10 10 10 9 9 9 8 7 6 6
6 4 4 2 1 3 3 9 4 4 3 5 4 3 3 2 3 9 8 7 6 7 6 3 6 12 18 17 16 15 15 14 14 13 12 12 12 12 10 10 9 9 9 9 8 8 7 7 7
5 5 2 4 2 3 3 5 2 6 3 6 3 2 2 5 5 4 5 7 6 5 5 5 5 5 6 8 15 14 13 13 12 12 11 11 11 10 9 8 8 8 8 8 7 8 8 8 8
3 4 4 4 5 2 4 5 5 3 3 4 3 3 5 5 7 9 5 3 4 5 5 5 6 8 8 6 8 12 15 13 12 11 12 8 4 5 7 7 8 8 8 8 7 7 8 8 9
5 4 8 5 5 1 3 1 2 4 6 2 1 1 7 6 6 8 4 6 4 5 6 6 6 8 10 7 7 5 7 6 6 7 7 6 7 5 6 7 9 9 8 8 8 8 8 8 3
3 5 5 5 3 2 3 2 1 1 3 3 4 7 3 2 4 4 5 5 5 4 7 9 8 6 6 4 4 3 3 4 4 8 8 8 6 5 4 3 3 4 8 3 5 4 3 4 4
2 7 5 6 1 1 3 1 3 2 6 5 5 4 4 3 4 4 1 7 4 4 7 10 11 10 6 4 5 5 3 5 5 7 8 6 5 6 7 6 5 4 4 6 5 3 4 5 6
3 3 4 4 5 4 3 3 4 6 9 6 6 8 6 6 4 4 5 5 4 5 5 7 7 9 9 7 6 6 7 6 7 7 7 6 6 3 3 4 3 5 4 8 8 6 6 6 6
3 3 5 6 6 4 5 3 4 9 4 8 5 8 7 7 9 5 5 6 6 3 6 7 8 7 7 6 6 5 5 5 4 4 5 9 5 5 4 4 5 6 7 8 9 7 6 6 5
3 4 6 2 3 3 4 0 7 8 6 9 10 7 8 9 7 10 8 7 6 4 6 8 9 8 7 7 6 5 5 5 5 5 7 8 8 7 6 6 6 7 6 7 6 5 5 5 5
5 5 4 6 8 5 4 7 7 7 6 10 9 9 8 11 9 8 8 8 7 6 8 7 5 8 8 8 7 5 3 3 3 4 4 7 8 8 7 6 6 6 5 5 6 7 6 6 7
7 1 1 9 6 5 4 6 7 8 8 10 9 9 9 9 8 8 9 8 4 4 2 1 4 4 3 4 3 3 3 2 2 1 3 5 6 8 8 6 7 6 5 7 7 7 6 6 7
2 1 3 3 6 7 3 6 10 11 7 11 10 10 9 9 12 9 10 7 4 7 6 7 7 8 6 4 4 3 3 2 2 2 3 5 5 7 6 6 7 6 5 7 8 10 7 8 8
2 1 1 4 2 4 4 6 11 9 6 10 10 9 6 5 6 7 5 7 9 7 8 7 8 5 4 3 3 2 1 1 1 0 2 4 4 6 5 6 7 7 8 11 11 8 7 6 3
2 2 2 5 5 3 6 8 6 6 7 7 6 4 5 6 9 10 11 10 9 7 9 8 8 6 4 3 2 2 2 2 1 2 4 6 7 6 6 7 8 10 8 10 8 5 3 4 4
1 4 2 6 4 3 5 6 8 4 7 9 10 6 9 8 8 8 9 8 8 8 7 8 7 6 4 4 2 2 3 3 4 4 2 4 7 7 7 9 8 9 9 8 9 7 8 7 4
1 4 1 4 5 2 5 6 7 3 5 6 8 9 8 9 8 8 8 9 8 7 7 7 7 8 8 8 5 2 1 1 2 2 2 5 6 7 7 9 10 9 7 9 8 7 7 7 9
4 3 4 2 2 3 4 4 9 2 1 3 6 6 7 7 8 9 8 8 7 7 7 6 7 8 7 7 5 3 4 2 3 3 5 5 6 7 7 7 8 9 5 6 8 8 10 8 8
3 5 7 5 4 2 5 6 7 4 5 2 2 2 5 6 7 7 6 6 6 6 6 6 7 6 7 7 8 8 7 7 5 6 6 5 4 5 7 7 6 7 7 7 8 8 9 8 7
8 7 5 5 4 6 4 1 10 7 6 7 8 7 5 4 6 6 6 5 4 5 5 5 5 6 7 8 8 7 7 6 5 6 5 8 5 5 7 6 6 5 7 7 5 6 8 8 9
2 6 7 4 3 5 6 7 8 7 4 2 4 5 4 5 6 5 4 3 2 4 3 3 3 3 4 4 6 6 5 3 4 4 5 5 7 7 8 7 6 7 7 8 8 6 8 7 9
1 1 3 2 1 2 6 8 6 3 6 4 7 2 4 4 1 0 0 3 3 3 1 1 0 1 2 3 2 4 5 7 7 9 6 5 7 8 10 8 7 7 7 7 8 6 9 7 8
3 3 3 4 2 5 6 6 7 7 6 6 3 4 7 6 5 2 2 3 4 3 2 3 3 4 4 5 6 6 7 7 7 7 9 8 8 9 11 9 9 7 6 6 8 7 7 8 6
4 3 4 2 5 5 3 8 7 10 9 8 7 7 9 6 1 2 4 6 6 4 2 3 4 5 6 5 5 6 6 7 7 7 10 9 8 9 10 10 7 8 7 6 6 7 6 6 6
4 4 6 6 6 4 3 14 6 4 6 9 9 11 2 3 1 3 6 7 7 5 4 6 7 6 6 6 6 6 6 7 7 8 10 11 10 9 9 10 7 7 7 6 7 7 5 3 3
Wind_Direction
319 287 145 63 45 51 288 292 268 352 316 330 118 148 174 62 181 178 63 151 132 139 145 157 162 153 143 137 134 132 132 130 130 131 132 134 135 136 137 139 141 144 147 146 147 146 147 143 142
310 126 54 88 79 15 293 274 329 349 307 107 92 118 83 75 47 102 105 151 138 139 150 155 163 157 149 144 141 138 139 139 138 137 136 138 139 140 140 142 144 149 151 152 152 154 156 150 151
260 103 88 92 110 148 279 283 300 155 242 323 115 89 115 119 89 166 144 142 136 142 155 160 162 160 155 150 148 146 145 145 144 143 143 143 145 146 146 145 146 153 159 161 161 164 165 159 159
20 16 34 86 205 257 227 286 286 227 250 7 51 55 27 281 147 155 138 141 136 148 158 166 164 161 158 157 155 154 152 152 150 151 150 150 151 151 151 151 154 160 168 174 176 174 176 173 166
28 63 58 81 266 276 272 296 321 60 94 352 5 31 54 26 56 130 143 152 154 155 160 164 169 163 164 165 164 162 160 158 159 160 160 159 157 157 157 160 165 172 176 181 187 189 190 187 177
31 86 31 141 233 277 311 337 343 51 36 351 50 52 331 359 117 155 158 165 164 161 167 173 176 168 168 171 171 167 168 166 167 167 167 164 165 166 169 173 177 181 184 189 197 201 204 204 195
107 81 232 227 230 314 355 319 39 16 37 15 135 84 275 144 241 171 160 137 143 155 155 180 189 180 171 172 174 172 170 173 171 172 173 174 174 178 180 186 188 191 192 194 198 207 215 221 219
99 90 254 255 128 251 311 357 342 39 24 295 31 122 261 77 16 30 103 121 124 124 148 151 148 182 183 177 176 173 175 174 176 175 176 181 184 189 194 195 203 207 204 208 209 215 224 232 236
104 70 241 261 166 206 319 38 322 283 48 45 57 87 292 344 73 73 62 56 108 155 163 155 160 174 180 180 187 178 178 180 179 183 184 180 177 193 204 207 217 220 220 221 224 229 234 243 249
100 136 225 228 158 127 289 351 283 22 356 354 159 351 354 20 53 104 142 178 217 219 176 168 164 174 176 177 187 182 185 179 179 180 182 187 196 196 199 214 222 228 229 230 233 240 245 252 263
164 200 223 262 244 181 244 274 268 83 330 237 292 297 7 46 18 62 166 173 230 214 179 174 162 163 167 164 163 184 171 188 194 200 197 197 201 209 214 203 216 205 223 212 235 240 234 238 239
248 245 218 276 147 158 209 303 321 239 234 252 263 242 295 178 187 184 227 191 243 216 188 174 171 162 174 148 177 198 182 205 208 211 211 210 214 209 209 214 216 210 215 223 217 215 228 237 242
184 287 299 285 269 248 200 198 229 261 260 285 288 298 264 239 230 259 230 161 216 210 202 177 162 169 175 168 172 172 198 198 209 209 207 217 227 208 222 228 206 213 202 228 234 227 220 232 240
272 254 278 283 258 248 194 224 128 269 285 302 301 275 259 221 224 194 240 265 176 142 189 177 175 176 167 162 168 185 186 184 182 181 192 216 197 208 202 214 226 233 221 216 223 221 228 234 232
273 322 335 9 345 318 177 149 216 255 16 308 304 270 253 238 244 224 223 215 190 204 183 194 172 161 176 181 183 188 193 178 190 198 200 203 208 219 211 221 223 233 235 244 241 227 223 236 237
29 53 26 293 11 323 106 275 285 11 5 316 309 308 310 292 279 273 261 241 224 182 185 179 160 171 177 186 192 195 179 178 207 225 204 201 203 202 210 230 228 237 227 226 237 241 234 228 233
6 84 319 323 27 354 54 285 293 342 349 312 302 296 286 286 299 270 270 263 333 29 30 44 30 56 51 63 75 81 75 39 8 269 263 244 229 214 212 220 235 204 212 238 230 236 231 238 234
229 77 295 275 335 3 359 274 305 286 287 272 280 288 292 295 279 299 288 254 152 123 123 115 107 106 106 107 96 78 78 51 19 331 274 265 236 236 226 237 226 208 193 232 234 234 221 236 245
163 127 314 282 301 341 241 266 262 271 274 273 256 251 278 348 353 358 65 79 98 78 97 100 104 88 106 98 127 103 68 1 42 155 300 306 273 248 231 243 244 230 230 234 234 224 228 234 250
79 106 313 294 302 309 329 305 305 343 342 320 298 354 97 63 30 22 26 36 44 83 95 89 90 92 83 90 96 123 164 177 202 331 6 359 349 318 276 242 238 233 230 234 229 199 212 233 220
70 140 243 227 304 325 331 341 332 355 1 31 34 31 50 68 61 34 40 43 57 53 49 84 91 94 90 101 100 31 28 24 13 1 346 322 316 306 293 280 256 231 226 232 224 205 189 230 222
200 202 206 338 40 273 47 283 304 347 20 24 27 42 53 59 57 44 34 36 36 30 41 45 53 40 26 15 28 64 143 205 264 269 265 292 300 295 288 286 275 247 227 223 223 208 209 208 235
215 19 3 323 262 29 348 83 270 283 237 332 13 39 42 43 61 55 39 46 44 45 45 47 52 44 28 20 21 350 329 297 292 281 280 285 293 294 292 277 276 265 230 224 205 215 210 209 209
53 21 38 47 79 6 217 133 275 225 183 175 119 63 86 85 71 67 71 60 44 41 46 31 50 41 28 37 29 30 11 337 331 316 314 303 276 283 288 292 273 264 262 229 219 221 219 221 235
61 49 339 350 7 223 239 96 240 242 227 175 168 162 130 91 100 110 96 82 81 65 51 55 37 27 17 25 13 12 5 355 336 310 308 306 297 292 290 295 290 280 280 279 244 223 222 221 224
9 137 153 258 234 273 329 254 264 211 183 145 179 158 138 136 171 160 124 111 70 35 65 119 81 37 15 15 348 343 335 319 292 283 296 291 285 280 279 281 274 272 264 269 262 244 242 226 218
233 248 200 149 19 64 237 290 324 237 287 206 205 196 251 244 247 329 88 16 345 321 282 205 334 273 308 326 321 320 331 324 310 303 285 288 286 290 287 280 277 267 268 254 249 252 253 236 232
162 174 22 6 275 259 277 268 237 205 232 233 246 242 276 261 283 242 10 342 309 299 270 276 317 319 317 327 341 332 305 295 291 299 301 288 291 293 295 281 288 284 272 256 251 236 242 237 236
332 333 56 156 155 214 273 254 220 211 202 213 247 252 263 254 149 20 329 318 315 326 276 269 291 296 296 283 266 276 283 285 286 294 296 289 284 289 287 282 284 286 285 276 255 240 240 236 233
157 227 145 130 271 228 185 263 253 210 196 208 231 255 229 114 288 298 302 305 303 286 271 252 255 258 260 270 286 284 276 272 277 284 288 294 287 286 282 274 263 278 287 288 256 246 242 225 246